This is the latest recevied weather packets stored in our database for station/object NY5V. If no packets are shown the sender has not sent any weather packets the latest 10 day(s).
| Time | Temp. | Humidity | Pressure | Rain* | Wind** | Luminosity | Snow |
|---|---|---|---|---|---|---|---|
| 1777555010 | 15° C | 99% | 1014.2 hPa | 0 mm | - | 25 W/m² | - |
| 1777554410 | 15° C | 99% | 1013.9 hPa | 0 mm | - | 17 W/m² | - |
| 1777553809 | 15° C | 99% | 1013.9 hPa | 0 mm | - | 20 W/m² | - |
| 1777553206 | 15° C | 99% | 1013.5 hPa | 0 mm | - | 9 W/m² | - |
| 1777552603 | 15° C | 99% | 1013.6 hPa | 0 mm | - | 7 W/m² | - |
| 1777552002 | 15° C | 99% | 1013.4 hPa | 0 mm | - | 6 W/m² | - |
| 1777551398 | 15° C | 99% | 1013.4 hPa | 0 mm | - | 8 W/m² | - |
| 1777550797 | 15° C | 99% | 1013.3 hPa | 0 mm | - | 4 W/m² | - |
| 1777550195 | 15° C | 99% | 1013.4 hPa | 0 mm | - | 2 W/m² | - |
| 1777549594 | 15° C | 99% | 1013.3 hPa | 0 mm | - | 1 W/m² | - |
| 1777548993 | 15° C | 99% | 1013.1 hPa | 0 mm | - | 0 W/m² | - |
| 1777548393 | 15° C | 99% | 1013.1 hPa | 0 mm | - | 0 W/m² | - |
| 1777547791 | 15° C | 99% | 1013.3 hPa | 0 mm | - | 0 W/m² | - |
| 1777547191 | 15.56° C | 99% | 1013.1 hPa | 0 mm | - | 0 W/m² | - |
| 1777546590 | 15° C | 99% | 1013.2 hPa | 0 mm | - | 0 W/m² | - |
| 1777545990 | 15° C | 99% | 1012.8 hPa | 0 mm | - | 0 W/m² | - |
| 1777545389 | 15° C | 99% | 1013 hPa | 0 mm | - | 0 W/m² | - |
| 1777544789 | 15.56° C | 99% | 1012.9 hPa | 0 mm | - | 0 W/m² | - |
| 1777544187 | 15.56° C | 99% | 1012.6 hPa | 0 mm | - | 0 W/m² | - |
| 1777543586 | 15.56° C | 99% | 1012.8 hPa | 0 mm | - | 0 W/m² | - |
| 1777542984 | 15.56° C | 99% | 1013.1 hPa | 0 mm | - | 0 W/m² | - |
| 1777542383 | 15.56° C | 99% | 1013.1 hPa | 0 mm | - | 0 W/m² | - |
| 1777541783 | 15.56° C | 99% | 1012.9 hPa | 0 mm | - | 0 W/m² | - |
| 1777541182 | 15.56° C | 99% | 1013.1 hPa | 0 mm | - | 0 W/m² | - |
| 1777540576 | 15.56° C | 99% | 1013.4 hPa | 0 mm | - | 0 W/m² | - |
* Rain latest hour (hover to see other rain measurements)
** Current wind speed in m/s (hover to see current wind gust speed)